User: anonymous   Login
Location: Unspecified
(0.0000°N, 0.0000°E)
Time: 04:23:13
(UTC+02:00)
Language:

AO-40 - Orbit

View from above orbital plane
View from above orbital plane
View from above satellite
View from above satellite

Ground track
Ground track

The orbit data is extracted from the following two-line orbital elements,

1 26609U 00072B   17233.06956381 -.00000438 +00000-0 +00000-0 0  9992
2 26609 006.5769 207.7455 7926954 151.3088 297.0898 01.25586312077039
Epoch (UTC): 21 August 2017 01:40:10
Eccentricity: 0.7926954
inclination: 6.5769°
perigee height: 1145 km
apogee height: 58676 km
right ascension of ascending node: 207.7455°
argument of perigee: 151.3088°
revolutions per day: 1.25586312
mean anomaly at epoch: 297.0898°
orbit number at epoch: 7703

The dashed part of the orbit path shows where the satellite is in the earth's shadow,  

DLR